Regional Weather Roundup
Issued by NWS

Home | Current Version | Previous Version | Graphics & Text | Print | Product List | Glossary On
Versions: 1 2 3 4 5 6 7 8 9 10 11 12 13 14 15 16 17 18 19 20 21 22 23 24 25 26 27 28 29 30 31 32 33 34 35 36 37 38 39 40 41 42 43 44 45 46 47 48 49 50
000
ASUS43 KDTX 231001
RWRMI
MICHIGAN HOURLY REGIONAL WEATHER ROUNDUP
NATIONAL WEATHER SERVICE DETROIT/PONTIAC MI
600 AM EDT SAT MAY 23 2015

NOTE: "FAIR" INDICATES FEW OR NO CLOUDS BELOW 12,000 FEET WITH NO
SIGNIFICANT WEATHER AND/OR OBSTRUCTION TO VISIBILITY.

MIZ047>049-052>055-059>063-066>070-074>076-081>083-231100-
SOUTHEAST LOWER MICHIGAN

CITY           SKY/WX    TMP DP  RH WIND       PRES   REMARKS
ADRIAN         PTCLDY    41  34  76 CALM      30.36R
ALMA           CLEAR     36  35  96 CALM      30.34R
ANN ARBOR      PTCLDY    35  31  85 CALM      30.36R
BAD AXE        CLEAR     34  23  64 S3        30.35R
CARO           CLEAR     30  28  95 CALM      30.35R
DETROIT CITY   CLEAR     40  28  62 CALM      30.37R
DETROIT        MOCLDY    41  31  67 N5        30.37R
FLINT          CLEAR     36  29  75 CALM      30.36R
GROSSE ILE     PTCLDY    43  36  75 NE3       30.35R
HILLSDALE      CLEAR     44  37  75 SE6       30.35R
HOWELL         CLEAR     38  29  70 CALM      30.35R

CITY           SKY/WX    TMP DP  RH WIND       PRES   REMARKS
JACKSON        CLEAR     41  34  76 CALM      30.36R
LAMBERTVILLE   PTCLDY    43  37  81 CALM      30.36S
LANSING        CLEAR     41  34  76 S3        30.35R
LAPEER         FAIR      29  28  95 CALM      30.36R
MASON          CLEAR     38  32  79 CALM      30.35R
MT. CLEMENS    CLEAR     35  31  82 NW2       30.35R
PONTIAC        CLEAR     36  29  75 CALM      30.35R
PORT HOPE        N/A     41  22  46 SW9       30.32R
PORT HURON     CLEAR     28  28 100 CALM      30.37S
TRI CITIES     CLEAR     40  30  67 S5        30.35R
MIDLAND        FAIR      33  32  98 CALM      30.34R
TROY           CLEAR     40  30  66 CALM      30.38R
SAGINAW HB     CLEAR     36  27  69 CALM      30.34S
$$
MIZ043>046-050>051-056>058-064>065-071>073-077>080-231100-
SOUTHWEST LOWER MICHIGAN

CITY           SKY/WX    TMP DP  RH WIND       PRES   REMARKS
BATTLE CREEK   CLEAR     44  35  70 S7        30.34S
BENTON HARBOR  CLEAR     44  33  65 SE5       30.33R
BIG RAPIDS     CLEAR     35  31  87 CALM      30.32R
COLDWATER      CLEAR     43  37  81 SE6       30.35R
FREMONT        FAIR      38  33  84 CALM      30.32R
HOLLAND        CLEAR     44  34  67 SE3       30.33R
GRAND RAPIDS   PTCLDY    42  33  70 SE5       30.33R
IONIA          FAIR      41  33  74 S6        30.32S
KALAMAZOO      CLEAR     43  34  70 S3        30.35R
LUDINGTON      CLEAR     34  32  92 CALM      30.32S
MARSHALL       CLEAR     43  38  81 CALM      30.34S
MOUNT PLEASANT   N/A     34  33  96 CALM      30.32S FOG
MUSKEGON       CLEAR     38  33  82 CALM      30.34R
SOUTH HAVEN    FAIR      47  32  55 SE5       30.32S
$$
MIZ016>042-231100-
NORTHERN LOWER MICHIGAN

CITY           SKY/WX    TMP DP  RH WIND       PRES   REMARKS
ALPENA         CLEAR     28  25  88 CALM      30.30S
BEAVER ISLAND  CLEAR     46  23  41 SW8       30.27S
BELLAIRE       CLEAR     30  29  93 CALM      30.31R
CADILLAC       CLEAR     32  27  83 CALM      30.31R
CHARLEVOIX     CLEAR     39  30  71 SE6       30.31S WCI  35
FRANKFORT      CLEAR     36  28  74 CALM      30.31R
GAYLORD        CLEAR     34  27  75 SW3       30.29R
GRAYLING       CLEAR     27  23  86 CALM      30.32R
HARBOR SPRINGS CLEAR     33  28  80 CALM      30.29R
HOUGHTON LAKE  CLEAR     31  29  92 CALM      30.32R
MANISTEE       CLEAR     30  27  86 E6        30.32S WCI  24
OSCODA         CLEAR     34  31  88 S3        30.32R
PELLSTON       CLEAR     26  24  92 CALM      30.28R
ROGERS CITY    CLEAR     36  28  73 S3        30.30S
TRAVERSE CITY  CLEAR     37  28  70 S3        30.30R
$$
MIZ007>008-015-231100-
EASTERN UPPER MICHIGAN

CITY           SKY/WX    TMP DP  RH WIND       PRES   REMARKS
KINROSS        CLEAR     37  30  75 S5        30.25S WCI  34
MACKINAC ISLAN CLEAR     39  28  63 S6        30.26R
NEWBERRY       CLEAR     42  28  56 SW14      30.23S
S. S. MARIE    CLEAR     31  26  82 E5        30.25F WCI  26
$$
MIZ004>006-011>014-085-231100-
CENTRAL UPPER MICHIGAN

CITY           SKY/WX    TMP DP  RH WIND       PRES   REMARKS
MANISTIQUE     CLEAR     41  36  81 S7        30.25S
ESCANABA       CLEAR     37  30  75 CALM      30.25S
MENOMINEE      CLEAR     45  34  65 W3        30.27R
SAWYER-GWINN   CLEAR     36  25  65 SW6       30.22S WCI  31
$$
MIZ001>003-009>011-084-231100-
WESTERN UPPER MICHIGAN

CITY           SKY/WX    TMP DP  RH WIND       PRES   REMARKS
IRON MOUNTAIN  CLEAR     33  28  81 CALM      30.23S
HOUGHTON       CLEAR     57  32  38 W15       30.15S
COPPER HARBOR    N/A     52  32  46 W8G20     30.10S
IRONWOOD       CLEAR     54  34  47 SW9       30.19R
$$

ABBREVIATIONS USED IN REMARKS
   TC - TEMPERATURE IN CELSIUS
  WCI - WIND CHILL INDEX
   HX - HEAT INDEX
  VSB - VISIBILITY




USA.gov is the U.S. government's official web portal to all federal, state and local government web resources and services.